Viimsi — ES2084 — position and weather

sailwx.info

Track history (hours):
 
Tides and Currents Weather Stations Pressure Air Temp Water Temp Dewpoint Dewpoint Depression Visibility Wind Speed Wind Dir Waves Ship Positions

Viimsi

Last reported at 2014-Aug-27 16:34 UTC. Time now 2014-Aug-27 17:13 UTC.
Position N 59°28' E 024°43'.

Length 78 m; draft 5.2 m.

Type: Ship. MMSI: 276297000.

Date/timePositionNaut miles runAvg speedWind from/ knotsBaromVisibWave heightAir tempDewpointWater temp
2014-Aug-27 16:34N 59°28' E 024°43'0 0.0
2014-Aug-27 15:32N 59°28' E 024°43'0 0.0
2014-Aug-27 14:33N 59°28' E 024°43'0 0.0
2014-Aug-27 13:33N 59°28' E 024°43'0 0.0
2014-Aug-27 12:33N 59°28' E 024°43'0 0.0
2014-Aug-27 11:34N 59°28' E 024°43'0 0.0
2014-Aug-27 10:33N 59°28' E 024°43'0 0.0
2014-Aug-27 09:33N 59°28' E 024°43'0 0.0
2014-Aug-27 08:34N 59°28' E 024°43'0 0.0
2014-Aug-27 07:34N 59°28' E 024°43'0 0.0
2014-Aug-27 06:33N 59°28' E 024°43'0 0.0
2014-Aug-27 05:33N 59°28' E 024°43'0 0.0
2014-Aug-27 04:33N 59°28' E 024°43'0 0.0
2014-Aug-27 03:34N 59°28' E 024°43'0 0.0
2014-Aug-27 02:33N 59°28' E 024°43'0 0.0
2014-Aug-27 01:34N 59°28' E 024°43'0 0.0
2014-Aug-27 00:33N 59°28' E 024°43'0 0.0
2014-Aug-26 23:33N 59°28' E 024°43'0 0.0
2014-Aug-26 22:34N 59°28' E 024°43'0 0.0
2014-Aug-26 21:33N 59°28' E 024°43'0 0.0
2014-Aug-26 20:33N 59°28' E 024°43'0 0.0
2014-Aug-26 19:33N 59°28' E 024°43'0 0.0
2014-Aug-26 18:34N 59°28' E 024°43'0 0.0
2014-Aug-26 17:33N 59°28' E 024°43'5 5.3
2014-Aug-26 16:34N 59°33' E 024°42'5 4.7
2014-Aug-26 15:33N 59°37' E 024°46'2 2.3
2014-Aug-26 14:34N 59°35' E 024°49'0 0.0
2014-Aug-26 13:34N 59°35' E 024°49'1 0.2
2014-Aug-26 11:25N 59°35' E 024°50'0 0.0
2014-Aug-26 10:28N 59°35' E 024°50'0 0.0
2014-Aug-26 09:33N 59°35' E 024°50'0 0.0
2014-Aug-26 08:05N 59°35' E 024°50'0 0.0
2014-Aug-26 07:28N 59°35' E 024°50'0 0.0
2014-Aug-26 06:31N 59°35' E 024°50'0 0.0
2014-Aug-26 05:31N 59°35' E 024°50'1 0.6
2014-Aug-26 04:33N 59°35' E 024°49'0 0.0
2014-Aug-26 03:33N 59°35' E 024°49'0 0.0
2014-Aug-26 02:34N 59°35' E 024°49'0 0.0
2014-Aug-26 01:33N 59°35' E 024°49'0 0.0
2014-Aug-26 00:34N 59°35' E 024°49'0 0.0
2014-Aug-25 23:34N 59°35' E 024°49'0 0.0
2014-Aug-25 22:34N 59°35' E 024°49'0 0.0
2014-Aug-25 21:34N 59°35' E 024°49'0 0.0
2014-Aug-25 20:33N 59°35' E 024°49'0 0.0
2014-Aug-25 19:33N 59°35' E 024°49'0 0.0
2014-Aug-25 18:33N 59°35' E 024°49'0 0.0
2014-Aug-25 17:34N 59°35' E 024°49'0 0.0
2014-Aug-25 16:33N 59°35' E 024°49'0 0.0
2014-Aug-25 15:33N 59°35' E 024°49'3 2.3
2014-Aug-25 14:26N 59°37' E 024°45'5 5.7
2014-Aug-25 13:30N 59°32' E 024°44'4 4.3
2014-Aug-25 12:28N 59°28' E 024°43'0 0.0
2014-Aug-25 11:32N 59°28' E 024°43'0 0.0
2014-Aug-25 10:30N 59°28' E 024°43'0 0.0
2014-Aug-25 09:32N 59°28' E 024°43'0 0.1
2014-Aug-25 08:33N 59°28' E 024°43'5 4.7
2014-Aug-25 07:33N 59°29' E 024°34'1 1.3
2014-Aug-25 06:32N 59°29' E 024°32'0 0.0
2014-Aug-25 05:31N 59°29' E 024°32'0 0.0
2014-Aug-25 04:31N 59°29' E 024°32'0 0.0
2014-Aug-25 03:33N 59°29' E 024°32'1 0.5
2014-Aug-25 02:26N 59°29' E 024°33'3 3.8
2014-Aug-25 01:34N 59°28' E 024°39'0 0.2
2014-Aug-25 00:33N 59°28' E 024°39'0 0.0
2014-Aug-24 23:34N 59°28' E 024°39'0 0.0
2014-Aug-24 22:33N 59°28' E 024°39'0 0.0
2014-Aug-24 21:33N 59°28' E 024°39'0 0.0
2014-Aug-24 20:34N 59°28' E 024°39'0 0.0
2014-Aug-24 19:34N 59°28' E 024°39'0 0.0
2014-Aug-24 18:33N 59°28' E 024°39'0 0.0
2014-Aug-24 17:34N 59°28' E 024°39'0 0.0
2014-Aug-24 16:33N 59°28' E 024°39'0 0.0
2014-Aug-24 15:33N 59°28' E 024°39'0 0.0
2014-Aug-24 14:34N 59°28' E 024°39'0 0.0
2014-Aug-24 13:33N 59°28' E 024°39'0 0.0
2014-Aug-24 12:33N 59°28' E 024°39'0 0.0
2014-Aug-24 11:34N 59°28' E 024°39'0 0.0
2014-Aug-24 10:33N 59°28' E 024°39'0 0.0
2014-Aug-24 09:30N 59°28' E 024°39'0 0.0
2014-Aug-24 08:33N 59°28' E 024°39'0 0.0
2014-Aug-24 07:33N 59°28' E 024°39'0 0.0
2014-Aug-24 06:33N 59°28' E 024°39'0 0.0
2014-Aug-24 05:34N 59°28' E 024°39'2 0.1
2014-Aug-23 03:34N 59°28' E 024°42'2 2.2
2014-Aug-23 02:34N 59°27' E 024°47'0 0.3
2014-Aug-23 01:34N 59°27' E 024°46'0 0.0
2014-Aug-23 00:33N 59°27' E 024°46'0 0.0
2014-Aug-22 23:33N 59°27' E 024°46'0 0.0
2014-Aug-22 22:33N 59°27' E 024°46'0 0.4
2014-Aug-22 21:34N 59°27' E 024°46'1 0.7
2014-Aug-22 20:33N 59°28' E 024°45'0 0.0
2014-Aug-22 19:33N 59°28' E 024°45'0 0.0
2014-Aug-22 18:33N 59°28' E 024°45'0 0.0
2014-Aug-22 17:33N 59°28' E 024°45'0 0.0
2014-Aug-22 16:34N 59°28' E 024°45'0 0.0
2014-Aug-22 15:34N 59°28' E 024°45'0 0.0
2014-Aug-22 14:33N 59°28' E 024°45'5 4.6
2014-Aug-22 13:34N 59°30' E 024°38'  
Track history (hours):
 
Tides and Currents Weather Stations Pressure Air Temp Water Temp Dewpoint Dewpoint Depression Visibility Wind Speed Wind Dir Waves Ship Positions

Viimsi

Last reported at 2014-Aug-27 16:34 UTC. Time now 2014-Aug-27 17:13 UTC.
Position N 59°28' E 024°43'.

Length 78 m; draft 5.2 m.

Type: Ship. MMSI: 276297000.

Date/timePositionNaut miles runAvg speedWind from/ knotsBaromVisibWave heightAir tempDewpointWater temp
2014-Aug-27 16:34N 59°28' E 024°43'0 0.0
2014-Aug-27 15:32N 59°28' E 024°43'0 0.0
2014-Aug-27 14:33N 59°28' E 024°43'0 0.0
2014-Aug-27 13:33N 59°28' E 024°43'0 0.0
2014-Aug-27 12:33N 59°28' E 024°43'0 0.0
2014-Aug-27 11:34N 59°28' E 024°43'0 0.0
2014-Aug-27 10:33N 59°28' E 024°43'0 0.0
2014-Aug-27 09:33N 59°28' E 024°43'0 0.0
2014-Aug-27 08:34N 59°28' E 024°43'0 0.0
2014-Aug-27 07:34N 59°28' E 024°43'0 0.0
2014-Aug-27 06:33N 59°28' E 024°43'0 0.0
2014-Aug-27 05:33N 59°28' E 024°43'0 0.0
2014-Aug-27 04:33N 59°28' E 024°43'0 0.0
2014-Aug-27 03:34N 59°28' E 024°43'0 0.0
2014-Aug-27 02:33N 59°28' E 024°43'0 0.0
2014-Aug-27 01:34N 59°28' E 024°43'0 0.0
2014-Aug-27 00:33N 59°28' E 024°43'0 0.0
2014-Aug-26 23:33N 59°28' E 024°43'0 0.0
2014-Aug-26 22:34N 59°28' E 024°43'0 0.0
2014-Aug-26 21:33N 59°28' E 024°43'0 0.0
2014-Aug-26 20:33N 59°28' E 024°43'0 0.0
2014-Aug-26 19:33N 59°28' E 024°43'0 0.0
2014-Aug-26 18:34N 59°28' E 024°43'0 0.0
2014-Aug-26 17:33N 59°28' E 024°43'5 5.3
2014-Aug-26 16:34N 59°33' E 024°42'5 4.7
2014-Aug-26 15:33N 59°37' E 024°46'2 2.3
2014-Aug-26 14:34N 59°35' E 024°49'0 0.0
2014-Aug-26 13:34N 59°35' E 024°49'1 0.2
2014-Aug-26 11:25N 59°35' E 024°50'0 0.0
2014-Aug-26 10:28N 59°35' E 024°50'0 0.0
2014-Aug-26 09:33N 59°35' E 024°50'0 0.0
2014-Aug-26 08:05N 59°35' E 024°50'0 0.0
2014-Aug-26 07:28N 59°35' E 024°50'0 0.0
2014-Aug-26 06:31N 59°35' E 024°50'0 0.0
2014-Aug-26 05:31N 59°35' E 024°50'1 0.6
2014-Aug-26 04:33N 59°35' E 024°49'0 0.0
2014-Aug-26 03:33N 59°35' E 024°49'0 0.0
2014-Aug-26 02:34N 59°35' E 024°49'0 0.0
2014-Aug-26 01:33N 59°35' E 024°49'0 0.0
2014-Aug-26 00:34N 59°35' E 024°49'0 0.0
2014-Aug-25 23:34N 59°35' E 024°49'0 0.0
2014-Aug-25 22:34N 59°35' E 024°49'0 0.0
2014-Aug-25 21:34N 59°35' E 024°49'0 0.0
2014-Aug-25 20:33N 59°35' E 024°49'0 0.0
2014-Aug-25 19:33N 59°35' E 024°49'0 0.0
2014-Aug-25 18:33N 59°35' E 024°49'0 0.0
2014-Aug-25 17:34N 59°35' E 024°49'0 0.0
2014-Aug-25 16:33N 59°35' E 024°49'0 0.0
2014-Aug-25 15:33N 59°35' E 024°49'3 2.3
2014-Aug-25 14:26N 59°37' E 024°45'5 5.7
2014-Aug-25 13:30N 59°32' E 024°44'4 4.3
2014-Aug-25 12:28N 59°28' E 024°43'0 0.0
2014-Aug-25 11:32N 59°28' E 024°43'0 0.0
2014-Aug-25 10:30N 59°28' E 024°43'0 0.0
2014-Aug-25 09:32N 59°28' E 024°43'0 0.1
2014-Aug-25 08:33N 59°28' E 024°43'5 4.7
2014-Aug-25 07:33N 59°29' E 024°34'1 1.3
2014-Aug-25 06:32N 59°29' E 024°32'0 0.0
2014-Aug-25 05:31N 59°29' E 024°32'0 0.0
2014-Aug-25 04:31N 59°29' E 024°32'0 0.0
2014-Aug-25 03:33N 59°29' E 024°32'1 0.5
2014-Aug-25 02:26N 59°29' E 024°33'3 3.8
2014-Aug-25 01:34N 59°28' E 024°39'0 0.2
2014-Aug-25 00:33N 59°28' E 024°39'0 0.0
2014-Aug-24 23:34N 59°28' E 024°39'0 0.0
2014-Aug-24 22:33N 59°28' E 024°39'0 0.0
2014-Aug-24 21:33N 59°28' E 024°39'0 0.0
2014-Aug-24 20:34N 59°28' E 024°39'0 0.0
2014-Aug-24 19:34N 59°28' E 024°39'0 0.0
2014-Aug-24 18:33N 59°28' E 024°39'0 0.0
2014-Aug-24 17:34N 59°28' E 024°39'0 0.0
2014-Aug-24 16:33N 59°28' E 024°39'0 0.0
2014-Aug-24 15:33N 59°28' E 024°39'0 0.0
2014-Aug-24 14:34N 59°28' E 024°39'0 0.0
2014-Aug-24 13:33N 59°28' E 024°39'0 0.0
2014-Aug-24 12:33N 59°28' E 024°39'0 0.0
2014-Aug-24 11:34N 59°28' E 024°39'0 0.0
2014-Aug-24 10:33N 59°28' E 024°39'0 0.0
2014-Aug-24 09:30N 59°28' E 024°39'0 0.0
2014-Aug-24 08:33N 59°28' E 024°39'0 0.0
2014-Aug-24 07:33N 59°28' E 024°39'0 0.0
2014-Aug-24 06:33N 59°28' E 024°39'0 0.0
2014-Aug-24 05:34N 59°28' E 024°39'2 0.1
2014-Aug-23 03:34N 59°28' E 024°42'2 2.2
2014-Aug-23 02:34N 59°27' E 024°47'0 0.3
2014-Aug-23 01:34N 59°27' E 024°46'0 0.0
2014-Aug-23 00:33N 59°27' E 024°46'0 0.0
2014-Aug-22 23:33N 59°27' E 024°46'0 0.0
2014-Aug-22 22:33N 59°27' E 024°46'0 0.4
2014-Aug-22 21:34N 59°27' E 024°46'1 0.7
2014-Aug-22 20:33N 59°28' E 024°45'0 0.0
2014-Aug-22 19:33N 59°28' E 024°45'0 0.0
2014-Aug-22 18:33N 59°28' E 024°45'0 0.0
2014-Aug-22 17:33N 59°28' E 024°45'0 0.0
2014-Aug-22 16:34N 59°28' E 024°45'0 0.0
2014-Aug-22 15:34N 59°28' E 024°45'0 0.0
2014-Aug-22 14:33N 59°28' E 024°45'5 4.6
2014-Aug-22 13:34N 59°30' E 024°38'  

Dump ship's entire track history